Powrót do katalogu

STARLINK-35571

AktywnyŁącznośćVLEO
NORAD 66089·PAYLOAD·🇺🇸 United States

Wystrzelony Oct 19, 2025 z Vandenberg Space Force Base

Loading…

Następne Przeloty (najbliższe 24 godziny)

TLE

ŚwieżeSource: CelesTrak SupGP

Epoka: Sep 14, 2026, 21:19 UTC

1 66089C 25236D   26257.88868056  .00008056  00000+0  23817-3 0  2577
2 66089  53.1579 303.7350 0001136  93.8343 156.3352 15.34364276    10

Śledź STARLINK-35571 w czasie rzeczywistym z AllMySat

Download on the App Store